Overview Statistics Trail Chart Weather Telemetry Raw packets
 

This is the latest recevied weather packets stored in our database for station/object KLEMETTI. If no packets are shown the sender has not sent any weather packets the latest 10 day(s).

<< 1 2 3 4 5 6 >>
Time Temp. Humidity Pressure Rain* Wind** Luminosity Snow
1788584693 11.67° C 98% 995.1 hPa 0.51 mm - - -
1788583285 11.11° C 99% 995.1 hPa 0 mm - - -
1788582293 11.11° C 99% 995.1 hPa 0 mm - - -
1788581098 10.56° C 100% 995.1 hPa 0 mm - - -
1788579683 10° C 100% 994.8 hPa 0 mm - - -
1788578483 10° C 100% 994.8 hPa 0 mm - - -
1788577493 10° C 100% 994.7 hPa 0 mm - - -
1788576293 10° C 100% 994.7 hPa 0 mm - - -
1788575092 10° C 100% 994.8 hPa 0 mm - - -
1788573892 9.44° C 100% 994.7 hPa 0 mm - - -
1788572693 9.44° C 100% 994.7 hPa 0.25 mm - - -
1788571492 10° C 100% 994.6 hPa 0.25 mm - - -
1788570293 10° C 100% 994.7 hPa 0.25 mm - - -
1788569093 9.44° C 100% 994.8 hPa 0 mm - - -
1788567895 9.44° C 99% 994.8 hPa 0 mm - - -
1788566693 9.44° C 100% 994.9 hPa 0 mm - - -
1788565492 9.44° C 100% 995.1 hPa 0 mm - - -
1788564292 9.44° C 99% 995.3 hPa 0 mm - - -
1788562882 9.44° C 99% 995.4 hPa 0 mm - - -
1788561682 10° C 99% 995.5 hPa 0 mm - - -
1788559282 10° C 98% 995.8 hPa 0 mm - - -
1788558292 10.56° C 98% 995.8 hPa 0 mm - - -
1788556882 11.11° C 96% 995.9 hPa 0 mm - - -
1788555890 11.67° C 95% 996 hPa 0 mm - - -
1788554691 12.22° C 94% 996 hPa 0 mm - - -

* Rain latest hour (hover to see other rain measurements)
** Current wind speed in m/s (hover to see current wind gust speed)